Location: Newark
(55.7816°N, 8.2389°E)
Time: 02:57:39
(UTC+00:00)

Envisat - Visible Passes

Search period start: 19 September 2020 00:00
Search period end: 29 September 2020 00:00
Orbit: 764 x 766 km, 98.1° (Epoch: 18 September)

Date Brightness Start Highest point End Pass type
(mag) Time Alt. Az. Time Alt. Az. Time Alt. Az.
19 Sep 6.6 03:53:24 10° ENE 03:54:55 11° E 03:56:25 10° E visible
19 Sep 6.8 18:36:48 10° W 18:37:32 10° W 18:38:14 10° WNW visible
21 Sep 6.1 04:17:24 10° NE 04:20:47 18° E 04:24:10 10° SE visible
22 Sep 6.5 18:23:45 10° WSW 18:25:57 13° W 18:28:10 10° NW visible
24 Sep 6.3 04:06:27 10° NE 04:09:15 15° E 04:12:03 10° ESE visible
25 Sep 6.3 18:11:27 10° WSW 18:14:24 15° W 18:17:23 10° NW visible
26 Sep 5.9 04:31:05 10° NE 04:35:04 22° E 04:39:01 10° SE visible
27 Sep 6.5 03:55:44 10° ENE 03:57:42 12° E 03:59:40 10° ESE visible
28 Sep 6.1 17:59:23 10° SW 18:02:53 18° W 18:06:24 10° NW visible
